Powrót do katalogu

STARLINK-36789

AktywnyŁącznośćSSO
NORAD 68118·PAYLOAD·🇺🇸 United States

Wystrzelony Mar 8, 2026 z Vandenberg Space Force Base

Loading…

Następne Przeloty (najbliższe 24 godziny)

TLE

ŚwieżeSource: CelesTrak SupGP

Epoka: Sep 14, 2026, 21:36 UTC

1 68118C 26044T   26257.90048611 -.00033792  00000+0 -10488-2 0  2576
2 68118  97.2851 216.9602 0001708  88.1563 195.7911 15.33461280    18

Śledź STARLINK-36789 w czasie rzeczywistym z AllMySat

Download on the App Store